This demonstration page uses our WeatherBlox Daily Observations layout. Learn more.

Left ArrowRight Arrow

38.20091, -84.87328

Hourly Observations for July 29, 2022

Temp ( °F °C ) Dew Point ( °F °C ) Humidity (%) Winds ( mph kmh ) Pressure ( in mb ) Visibility ( mi km ) Precip ( " mm )
12:53 am 00:53 Cloudy 71 21.7 69 20.6 94 94 SSW 8 13 29.95 1014 10 16 0.00 0.00
1:53 am 01:53 Cloudy 71 21.7 69 20.6 94 94 Calm 29.95 1014 9 14 0.00 0.00
2:53 am 02:53 Cloudy 71 21.7 69 20.6 94 94 SW 3 6 29.94 1014 10 16 0.00 0.00
3:53 am 03:53 Cloudy 71 21.7 69 20.6 94 94 VRB 3 6 29.96 1015 10 16 0.00 0.00
4:19 am 04:19 Cloudy 71 21.7 69 20.6 94 94 Calm 29.96 1014 10 16 0.00 0.00
4:31 am 04:31 Cloudy 71 21.7 69 20.6 94 94 Calm 29.96 1014 10 16 0.00 0.00
4:53 am 04:53 Mostly Cloudy 71 21.7 69 20.6 94 94 Calm 29.95 1014 10 16 0.00 0.00
5:00 am 05:00 Mostly Cloudy 71 21.7 69 20.6 94 94 WSW 3 6 29.96 1014 9 14 0.00 0.00
5:53 am 05:53 Partly Cloudy 70 21.1 69 20.6 97 97 SW 3 6 29.96 1015 7 11 0.00 0.00
6:14 am 06:14 Cloudy 71 21.7 69 20.6 94 94 W 3 6 29.96 1014 8 13 0.00 0.00
6:49 am 06:49 Cloudy 72 22 70 21 94 94 W 3 6 29.97 1015 7 11 0.00 0.00
6:53 am 06:53 Cloudy 71 21.7 69 20.6 94 94 Calm 29.96 1015 7 11 0.00 0.00
7:29 am 07:29 Partly Cloudy with Mist and Fog 71 21.7 70 21.1 96 96 VRB 5 7 29.98 1015 6 10 0.00 0.00
7:53 am 07:53 Cloudy with Mist and Fog 72 22.2 70 21.1 94 94 WSW 3 6 29.98 1015 6 10 0.00 0.00
8:18 am 08:18 Cloudy 72 22.2 71 21.7 97 97 WSW 3 6 29.99 1016 7 11 0.00 0.00
8:29 am 08:29 Cloudy 73 22.8 71 21.7 94 94 WSW 3 6 29.98 1015 7 11 0.00 0.00
8:53 am 08:53 Cloudy 74 23.3 71 21.7 91 91 SW 6 9 29.99 1016 8 13 0.00 0.00
9:06 am 09:06 Cloudy 75 23.9 72 22.2 90 90 WSW 3 6 29.99 1016 10 16 0.00 0.00
9:17 am 09:17 Cloudy 75 23.9 71 21.7 88 88 WSW 3 6 29.99 1016 10 16 0.00 0.00
9:53 am 09:53 Mostly Cloudy 77 25 72 22.2 85 85 VRB 5 7 30.01 1016 10 16 0.00 0.00
10:00 am 10:00 Mostly Cloudy 76 24.4 71 21.7 85 85 NW 5 7 30.00 1016 10 16 0.00 0.00
10:10 am 10:10 Mostly Cloudy 76 24.4 70 21.1 82 82 W 5 7 30.00 1016 10 16 0.00 0.00
10:21 am 10:21 Partly Cloudy 77 25 71 21.7 82 82 undefined N/A 30.01 1016 10 16 0.00 0.00
10:53 am 10:53 Mostly Cloudy 78 25.6 71 21.7 79 79 W 5 7 30.02 1017 10 16 0.00 0.00
11:53 am 11:53 Cloudy 78 25.6 70 21.1 76 76 W 6 9 30.03 1017 10 16 0.00 0.00
12:53 pm 12:53 Mostly Cloudy 80 26.7 71 21.7 74 74 VRB 5 7 30.02 1017 10 16 0.00 0.00
1:53 pm 13:53 Mostly Cloudy 82 27.8 69 20.6 65 65 W 5 7 30.02 1017 10 16 0.00 0.00
2:42 pm 14:42 Cloudy 79 26.1 69 20.6 72 72 WNW 7 11 30.00 1016 10 16 0.00 0.00
2:50 pm 14:50 Mostly Cloudy 81 27 70 21 70 70 W 8 13 30.00 1016 10 16 0.00 0.00
2:53 pm 14:53 Mostly Cloudy 81 27.2 69 20.6 67 67 NW 9 15 30.01 1016 10 16 0.00 0.00
3:49 pm 15:49 Mostly Cloudy 81 27 70 21 70 70 NW 10 17 29.99 1016 10 16 0.00 0.00
3:53 pm 15:53 Mostly Cloudy 82 27.8 69 20.6 65 65 WNW 7 11 30.01 1016 10 16 0.00 0.00
4:07 pm 16:07 Mostly Cloudy 82 27.8 68 20 63 63 NW 7 11 29.99 1016 10 16 0.00 0.00
4:53 pm 16:53 Mostly Sunny 82 27.8 67 19.4 60 60 NW 9 15 30.01 1016 10 16 0.00 0.00
5:53 pm 17:53 Mostly Cloudy 81 27.2 65 18.3 58 58 NW 8 13 30.02 1017 10 16 0.00 0.00
6:53 pm 18:53 Sunny 80 26.7 64 17.8 58 58 NW 10 17 30.01 1016 10 16 0.00 0.00
7:53 pm 19:53 Sunny 79 26.1 63 17.2 58 58 NW 7 11 30.03 1017 10 16 0.00 0.00
8:53 pm 20:53 Clear 75 23.9 63 17.2 66 66 NNW 3 6 30.05 1018 10 16 0.00 0.00
9:53 pm 21:53 Clear 70 21.1 63 17.2 79 79 NW 3 6 30.06 1018 10 16 0.00 0.00
10:53 pm 22:53 Clear 68 20 63 17.2 84 84 Calm 30.09 1019 10 16 0.00 0.00
11:53 pm 23:53 Clear 65 18.3 62 16.7 90 90 Calm 30.10 1019 10 16 0.00 0.00

Powered by AerisWeather